カタログに戻る

STARLINK-5059

運用中通信VLEO
NORAD 53912·PAYLOAD·🇺🇸 United States

打ち上げ Sep 24, 2022 から Cape Canaveral Space Force Station

Loading…

次のパス (今後24時間)

TLE

最新Source: CelesTrak SupGP

元期: Sep 14, 2026, 21:34 UTC

1 53912C 22119AC  26257.89909722 -.00023525  00000+0 -14754-2 0  2571
2 53912  53.1597 183.7350 0001461  93.1227 289.7656 15.08842074    18

AllMySatでSTARLINK-5059をリアルタイム追跡

Download on the App Store